Weather in Verkh-Uryum

Russia / Novosibirsk Oblast     54°29′30″N   78°35′25″E
temp.,
°C
wind,
m/s
gust,
m/s
humid.,
%
clouds,
%
prec.,
mm/h
press.,
hPa
HPBL,
m
2 march, tue
tue201:00−16n239793 0.1 101220
04:00−16nnw239694 0.0 101326
07:00−19nw239990 0.1 101520
10:00−18wnw239775 0.0 101632
13:00−15w229286 0.0 1016242
16:00−13wsw2391100 0.0 1016352
19:00−16w2296100 0.1 101620
22:00−17sw229699 0.0 101720
3 march, wed
wed301:00−17sw229692 0.0 101722
04:00−17sw229786 0.1 101736
07:00−16ssw349682 0.1 101884
10:00−16ssw369580 0.1 1018215
13:00−13ssw469484 0.1 1019316
16:00−11ssw6992100 0.0 1018485
19:00−13ssw61293100 0.1 1019408
22:00−14s7149397 0.0 1019376
4 march, thu
thu401:00−12ssw7149299 0.1 1018490
04:00−10ssw81493100 0.4 1016490
07:00−9ssw71493100 0.6 1016458
10:00−8ssw81492100 0.3 1015498
13:00−5ssw91492100 0.5 1014650
16:00−3ssw91492100 0.1 1013766
19:00−2ssw91693100 0.4 1012846
22:00−3ssw91792100 0.1 1011708
5 march, fri
fri501:00−4ssw81686100 0.2 1011575
04:00−5ssw81494100 0.4 1009490
07:00−6ssw71295100 1.1 1008424
10:00−5ssw61095100 0.9 1008436
13:00−3w71186100 1.3 1011714
16:00−6wsw712860 0.0 1015572
19:00−8sw715860 0.0 1017486
22:00−8sw10188690 0.0 1017781
6 march, sat
sat601:00−6sw10178895 0.1 1016885
04:00−5sw101691100 0.2 1016919
07:00−5sw91693100 0.6 1016830
10:00−6sw91590100 0.6 1016743
13:00−5sw91391100 0.8 1016783
16:00−5sw81394100 0.3 1017698
19:00−5sw71291100 0.6 1017633
22:00−5sw51092100 0.1 1018606